Flag for U.S.A. Weather past 2 weeks in Winder, Georgia, U.S.A.

Now
77 °F

Clear.


Feels Like: 79 °F
Forecast: 71 / 88 °F
Wind: 5 mph from Southwest

Location: Winder-Barrow Airport

Current Time: Jun 30, 2015 at 12:41:30 AM

Latest Report: Jun 29, 2015 at 11:55 PM


Visibility: 10 mi

Pressure: 30.04 "Hg

Humidity: 74%

Dew point: 68 °F

Location of WinderLocation

Historic Weather in Winder — Graph

°F

Winder temperature yesterday

Maximum temperature yesterday: 88 °F (at 3:35 PM)
Minimum temperature yesterday: 63 °F (at 2:35 AM)
Average temperature yesterday: 76 °F

Past Weeks' High & Low Weather Summary

 TemperatureHumidityPressure
High97 °F (Jun 15, 3:55 PM)100% (Jun 18, 7:35 PM)30.20 "Hg (Jun 18, 7:35 PM)
Low63 °F (Jun 29, 2:35 AM)37% (Jun 28, 6:55 PM)29.88 "Hg (Jun 27, 4:35 PM)
Average83 °F73%30.08 "Hg
* Reported Jun 14 11:15 PM — Jun 29 11:15 PM, Winder, Weather by CustomWeather, © 2015

Note: Actual official high and low records may vary slightly from our data, if they occured in-between our weather recording intervals... More about our weather records

Advertising

Winder weather history for previous 24 hours

 ConditionsComfort  
Time TempWeatherWind HumidityBarometerVisibility
11:15 PM
Mon, Jun 29
77 °FClear.3 mph74%30.03 "Hg10 mi
10:55 PM77 °FClear.3 mph74%30.03 "Hg10 mi
10:15 PM79 °FPassing clouds.3 mph70%30.02 "Hg10 mi
9:55 PM79 °FPartly cloudy.3 mph70%30.01 "Hg10 mi
9:15 PM81 °FOvercast.No wind66%30.02 "Hg10 mi
8:55 PM81 °FScattered clouds.No wind66%30.02 "Hg10 mi
8:35 PM81 °FScattered clouds.No wind62%30.01 "Hg10 mi
8:15 PM82 °FScattered clouds.No wind58%30.00 "Hg10 mi
7:55 PM82 °FPartly sunny.3 mph58%30.00 "Hg10 mi
7:35 PM84 °FOvercast.3 mph55%30.00 "Hg10 mi
7:15 PM84 °FOvercast.3 mph55%30.00 "Hg10 mi
6:55 PM86 °FOvercast.No wind52%29.99 "Hg10 mi
6:35 PM86 °FPartly sunny.3 mph52%29.99 "Hg10 mi
6:15 PM88 °FBroken clouds.6 mph49%29.99 "Hg10 mi
5:15 PM88 °FPartly sunny.7 mph46%30.00 "Hg10 mi
4:55 PM88 °FPartly sunny.8 mph46%30.00 "Hg10 mi
4:35 PM86 °FScattered clouds.No wind49%30.01 "Hg10 mi
4:15 PM88 °FScattered clouds.6 mph43%30.01 "Hg10 mi
3:55 PM88 °FScattered clouds.6 mph43%30.02 "Hg10 mi
3:35 PM88 °FScattered clouds.7 mph43%30.02 "Hg10 mi
3:15 PM86 °FBroken clouds.3 mph46%30.03 "Hg10 mi
2:55 PM86 °FPartly sunny.3 mph46%30.04 "Hg10 mi
2:35 PM86 °FSunny.5 mph49%30.04 "Hg10 mi
2:15 PM86 °FScattered clouds.5 mph46%30.04 "Hg10 mi
1:55 PM86 °FPartly sunny.7 mph46%30.05 "Hg10 mi
1:15 PM86 °FScattered clouds.5 mph46%30.05 "Hg10 mi
12:55 PM86 °FScattered clouds.3 mph46%30.06 "Hg10 mi
12:35 PM86 °FSunny.7 mph46%30.06 "Hg10 mi
12:15 PM82 °FSunny.6 mph51%30.07 "Hg10 mi
11:55 AM82 °FSunny.7 mph51%30.07 "Hg10 mi
11:35 AM82 °FSunny.7 mph51%30.07 "Hg10 mi
11:15 AM82 °FSunny.8 mph51%30.07 "Hg10 mi
10:55 AM81 °FSunny.No wind51%30.07 "Hg10 mi
10:35 AM81 °FSunny.6 mph54%30.07 "Hg10 mi
10:15 AM79 °FSunny.No wind58%30.07 "Hg10 mi
9:55 AM77 °FSunny.No wind61%30.07 "Hg10 mi
9:15 AM75 °FSunny.3 mph65%30.07 "Hg10 mi
8:55 AM73 °FSunny.3 mph69%30.06 "Hg10 mi
8:35 AM72 °FSunny.No wind69%30.06 "Hg10 mi
8:15 AM70 °FSunny.3 mph73%30.06 "Hg10 mi
7:55 AM70 °FSunny.3 mph73%30.05 "Hg10 mi
7:40 AM68 °FSunny.3 mph78%30.05 "Hg10 mi
7:15 AM64 °FClear.5 mph83%30.04 "Hg10 mi
6:55 AM63 °FClear.3 mph88%30.03 "Hg10 mi
6:35 AM63 °FClear.No wind88%30.03 "Hg10 mi
6:15 AM63 °FClear.No wind88%30.02 "Hg10 mi
5:55 AM63 °FClear.No wind88%30.02 "Hg10 mi
5:35 AM63 °FClear.3 mph88%30.01 "Hg10 mi
5:15 AM63 °FClear.No wind88%30.01 "Hg10 mi
4:55 AM63 °FClear.3 mph88%30.01 "Hg10 mi
4:35 AM63 °FClear.3 mph94%30.01 "Hg10 mi
4:15 AM63 °FClear.3 mph88%30.01 "Hg10 mi
3:55 AM63 °FClear.No wind88%30.00 "Hg10 mi
3:35 AM64 °FClear.No wind83%30.00 "Hg10 mi
3:15 AM64 °FClear.No wind88%30.01 "Hg10 mi
2:55 AM63 °FClear.No wind94%30.00 "Hg10 mi
2:35 AM63 °FClear.No wind94%30.00 "Hg10 mi
2:15 AM64 °FClear.No wind88%30.00 "Hg10 mi
1:55 AM64 °FClear.No wind83%30.01 "Hg10 mi
1:35 AM64 °FClear.No wind88%30.01 "Hg10 mi
1:15 AM68 °FClear.No wind73%30.01 "Hg10 mi
12:55 AM68 °FClear.No wind73%30.01 "Hg10 mi
12:35 AM70 °FClear.No wind64%30.01 "Hg10 mi
12:15 AM70 °FClear.3 mph64%30.02 "Hg10 mi
Weather by CustomWeather, © 2015

See weather overviewHow to use our weather pages